Location: Newark
(40.7060°N, 73.9980°W)
Time: 14:49:10
(UTC+00:00)

X-37B - Pass Details

Date: 11 March 2021
Orbit: 380 x 394 km, 45.0° (Epoch: 07 April)

Event Time Altitude Azimuth Distance (km) Brightness Sun altitude
Rises 23:48:51 0° 220° (SW) 2,257 5.0 -10.3°
Reaches altitude 10° 23:51:03 10° 208° (SSW) 1,409 3.7 -10.7°
Maximum altitude 23:53:51 29° 147° (SSE) 753 1.7 -11.3°
Enters shadow 23:55:21 19° 102° (ESE) 989 2.0 -11.5°
